< < Back
Terminal Aerodrome Forecast


Current Version              Previous Versions:   1  2  3  4  5  6  7  8  9  

Terminal Aerodrome Forecast

060
FTUS42 KTAE 031120
TAFVLD
TAF
KVLD 031120Z 0312/0412 VRB03KT P6SM SKC
     FM031400 15005KT P6SM SKC
     FM040100 12003KT P6SM SKC=

Latest METAR

501
SAUS70 KWBC 040800 RRB
MTRVLD
METAR KVLD 040753Z AUTO 00000KT 8SM CLR 13/11 A3020 RMK AO2 SLP233
T01280111 TSNO


USA.gov is the U.S. government's official web portal to all federal, state and local government web resources and services.